CET,Max TemperatureF,Mean TemperatureF,Min TemperatureF,Max Dew PointF,MeanDew PointF,Min DewpointF,Max Humidity, Mean Humidity, Min Humidity, Max Sea Level PressureIn, Mean Sea Level PressureIn, Min Sea Level PressureIn, Max VisibilityMiles, Mean VisibilityMiles, Min VisibilityMiles, Max Wind SpeedMPH, Mean Wind SpeedMPH, Max Gust SpeedMPH,PrecipitationIn, CloudCover, Events, WindDirDegrees
2012-11-1,74,66,57,59,56,52,94,74,45,29.74,29.59,29.44,12,7,6,16,8,,0.01,3,,267
2012-11-2,74,63,51,57,53,48,94,74,40,30.01,29.89,29.77,12,7,6,15,5,,0.00,3,,331
2012-11-3,70,59,48,63,56,44,88,83,71,30.04,29.99,29.92,12,7,6,10,3,,0.00,4,,132
2012-11-4,81,72,63,70,65,59,88,81,65,29.93,29.85,29.77,9,6,6,14,6,,0.00,4,,169
2012-11-5,76,66,55,70,63,52,94,82,64,30.04,29.86,29.74,10,6,5,15,10,25,0.00,3,,291
2012-11-6,63,57,51,57,52,46,94,83,58,30.15,30.08,30.04,9,6,5,5,3,,0.04,4,Rain,330
2012-11-7,65,58,50,54,50,46,88,74,43,30.34,30.25,30.15,16,7,6,14,5,,0.00,3,,340
2012-11-8,68,55,42,55,48,37,94,76,42,30.34,30.25,30.18,12,7,6,9,3,,0.00,1,,130
2012-11-9,73,60,47,63,54,46,94,81,55,30.17,30.07,29.98,12,7,6,18,5,,0.00,1,,108
2012-11-10,77,68,58,65,61,54,88,80,63,30.00,29.90,29.80,7,6,2,12,6,,0.00,4,,60
2012-11-11,66,63,60,61,59,55,94,84,72,29.86,29.81,29.77,7,5,2,16,7,,0.08,6,Rain-Thunderstorm,332
2012-11-12,73,67,61,70,65,59,88,84,76,30.04,29.94,29.86,6,3,2,15,8,,0.00,6,Rain,124
2012-11-13,74,70,65,66,64,62,94,81,70,30.08,30.05,30.01,11,6,5,21,12,,0.00,4,,118
2012-11-14,72,67,62,64,59,55,94,74,53,30.07,30.01,29.95,7,6,5,16,7,,0.43,3,Rain,108
2012-11-15,73,66,57,61,58,54,88,80,57,30.02,29.99,29.95,12,7,6,7,2,,0.00,4,Rain,2
2012-11-16,68,59,50,58,53,46,88,79,53,30.04,30.00,29.98,9,6,4,6,2,,0.00,2,,343
2012-11-17,69,58,48,57,52,45,88,79,60,30.02,29.93,29.86,7,6,4,13,4,,0.00,3,,91
2012-11-18,72,64,55,61,56,50,94,82,67,29.84,29.78,29.74,9,6,4,9,2,,0.55,5,Rain-Thunderstorm,284
2012-11-19,68,60,53,59,53,48,88,80,67,29.86,29.81,29.77,9,6,6,9,3,,0.01,2,,337
2012-11-20,67,58,50,59,54,46,88,81,68,30.01,29.94,29.86,11,7,6,12,5,,0.00,4,,338
2012-11-21,68,60,51,57,52,46,88,80,49,30.13,30.06,30.01,12,7,6,12,4,,0.00,1,,332
2012-11-22,68,58,47,55,49,43,94,78,51,30.19,30.15,30.12,12,6,1,4,2,,0.00,2,,339
2012-11-23,68,58,48,57,51,43,88,78,56,30.22,30.18,30.15,12,6,0,8,3,,0.00,2,Fog,339
2012-11-24,69,56,44,60,49,39,88,81,58,30.23,30.20,30.15,12,6,0,9,3,,0.00,2,Fog,17
2012-11-25,69,56,42,59,49,39,88,81,60,30.22,30.16,30.12,16,7,1,10,3,,0.00,1,,74
2012-11-26,68,55,42,61,51,37,88,82,67,30.15,30.03,29.89,12,7,6,14,4,,0.00,2,,115
2012-11-27,66,58,51,61,54,47,88,85,79,29.89,29.70,29.50,7,5,2,8,3,,0.04,5,Rain-Thunderstorm,134
2012-11-28,58,53,48,54,48,43,88,83,73,29.49,29.38,29.36,9,5,2,10,5,,0.51,4,Rain,225
2012-11-29,57,52,47,48,45,43,87,78,58,29.53,29.44,29.39,6,5,3,16,7,23,0.08,4,Rain,270
2012-11-30,58,51,44,46,44,39,93,81,51,29.68,29.57,29.50,7,6,5,9,2,,0.01,5,Rain,2